Savannah, GA

11:23 PM EDT on June 28, 2017 (GMT -0400)
Savannah International

Weather History for KSAV - November, 2012

Change the Weather History Date:

Monday, November 5, 2012

  Actual Average Record
Temperature  
Mean Temperature 58 °F 62 °F  
Max Temperature 67 °F 74 °F 85 °F (2003)
Min Temperature 49 °F 51 °F 30 °F (1966)
Degree Days  
Heating Degree Days 7 5  
Month to date heating degree days 25 21  
Since 1 July heating degree days 59 78  
Cooling Degree Days 0 2  
Month to date cooling degree days 6 10  
Year to date cooling degree days 2662 2422  
Growing Degree Days 8 (Base 50)    
Moisture  
Dew Point 48 °F    
Average Humidity 69    
Maximum Humidity 93    
Minimum Humidity 45    
Precipitation  
Precipitation T in 0.08 in 1.73 in (1993)
Month to date precipitation T 0.38  
Year to date precipitation 37.82 43.02  
Snow  
Snow 0.00 in 0.00 in - ()
Month to date snowfall 0.0  
Since 1 July snowfall 0.0 0.0  
Since 1 September snowfall 0.0 0.0  
Snow Depth 0.00 in    
Sea Level Pressure  
Sea Level Pressure 30.00 in    
Wind  
Wind Speed 6 mph (NNE)    
Max Wind Speed 15 mph    
Max Gust Speed 18 mph    
Visibility 10 miles    
Events      
T = Trace of Precipitation, MM = Missing Value Source: NWS Daily Summary

Daily Weather History Graph

Daily Weather History Graph

Search for Another Location

Airport or City:

Trip Planner

Search our weather history database for the weather conditions in past years. The results will help you decide how hot, cold, wet, or windy it might be!

Date:

Astronomy

Nov. 05, 2012 Rise Set
Actual Time 6:45 AM EST 5:31 PM EST
Civil Twilight 6:19 AM EST 5:56 PM EST
Nautical Twilight 5:50 AM EST 6:25 PM EST
Astronomical Twilight 5:22 AM EST 6:54 PM EST
Moon 11:06 PM EST (11/5) 12:03 PM EST (11/5)
Length of Visible Light 11h 36m
Length of Day
10h 45m
Waning Gibbous, 63% of the Moon is Illuminated
Nov 5
Waning Gibbous
Nov 6
Last Quarter
Nov 13
New
Nov 20
First Quarter
Nov 28
Full

Hourly Weather History & Observations

Time (EST) Temp. Dew Point Humidity Pressure Visibility Wind Dir Wind Speed Gust Speed Precip Events Conditions
12:53 AM 64.9 °F 55.0 °F 70% 29.95 in 10.0 mi NW 8.1 mph - 0.00 in   Mostly Cloudy
1:53 AM 64.0 °F 54.0 °F 70% 29.95 in 10.0 mi NW 6.9 mph - N/A   Mostly Cloudy
2:53 AM 61.0 °F 54.0 °F 78% 29.94 in 10.0 mi NW 8.1 mph - N/A   Scattered Clouds
3:53 AM 59.0 °F 53.1 °F 81% 29.94 in 10.0 mi WNW 5.8 mph - N/A   Clear
4:53 AM 57.9 °F 52.0 °F 81% 29.96 in 10.0 mi NNW 5.8 mph - N/A   Clear
5:53 AM 57.0 °F 51.1 °F 81% 29.97 in 10.0 mi NW 6.9 mph - N/A   Scattered Clouds
6:53 AM 54.0 °F 48.9 °F 83% 29.99 in 10.0 mi NW 8.1 mph - N/A   Scattered Clouds
7:03 AM 55.4 °F 48.2 °F 77% 30.00 in 10.0 mi NNW 9.2 mph - N/A   Mostly Cloudy
7:28 AM 55.4 °F 50.0 °F 82% 30.00 in 9.0 mi NNW 9.2 mph - N/A   Overcast
7:53 AM 55.9 °F 51.1 °F 84% 30.01 in 7.0 mi North 6.9 mph - N/A   Overcast
8:53 AM 54.0 °F 51.1 °F 90% 30.03 in 5.0 mi NNE 10.4 mph - N/A   Overcast
9:53 AM 55.0 °F 50.0 °F 83% 30.05 in 8.0 mi NE 6.9 mph - N/A   Overcast
10:16 AM 55.4 °F 48.2 °F 77% 30.04 in 10.0 mi NNE 6.9 mph - N/A   Overcast
10:29 AM 59.0 °F 48.2 °F 67% 30.05 in 10.0 mi NNE 9.2 mph - N/A   Mostly Cloudy
10:49 AM 59.0 °F 46.4 °F 63% 30.05 in 10.0 mi NE 10.4 mph 16.1 mph N/A   Scattered Clouds
10:53 AM 59.0 °F 46.9 °F 64% 30.04 in 10.0 mi NE 10.4 mph 16.1 mph N/A   Scattered Clouds
11:53 AM 63.0 °F 46.9 °F 56% 30.04 in 10.0 mi NE 6.9 mph - N/A   Scattered Clouds
12:53 PM 64.0 °F 46.0 °F 52% 30.01 in 10.0 mi Variable 6.9 mph - N/A   Scattered Clouds
1:53 PM 64.9 °F 45.0 °F 48% 30.00 in 10.0 mi NE 8.1 mph - N/A   Scattered Clouds
2:53 PM 64.9 °F 44.1 °F 47% 29.99 in 10.0 mi Variable 3.5 mph - N/A   Partly Cloudy
3:53 PM 66.0 °F 44.1 °F 45% 29.99 in 10.0 mi NNE 11.5 mph - N/A   Partly Cloudy
4:53 PM 63.0 °F 44.1 °F 50% 30.00 in 10.0 mi East 5.8 mph - N/A   Clear
5:53 PM 59.0 °F 44.1 °F 58% 30.01 in 10.0 mi East 4.6 mph - N/A   Partly Cloudy
6:53 PM 54.0 °F 45.0 °F 72% 30.03 in 10.0 mi Calm Calm - N/A   Partly Cloudy
7:53 PM 52.0 °F 46.9 °F 83% 30.04 in 10.0 mi Calm Calm - N/A   Clear
8:53 PM 50.0 °F 46.9 °F 89% 30.04 in 10.0 mi Calm Calm - N/A   Scattered Clouds
9:53 PM 55.0 °F 48.0 °F 77% 30.03 in 10.0 mi East 6.9 mph - N/A   Overcast
10:53 PM 55.0 °F 48.0 °F 77% 30.02 in 10.0 mi ENE 4.6 mph - N/A   Overcast
11:53 PM 54.0 °F 48.0 °F 80% 30.01 in 10.0 mi ENE 4.6 mph - N/A   Mostly Cloudy